Wind_Speed
10 10 9 9 10 10 11 10 10 11 11 12 12 12 12 12 12 11 11 10 9 10 9 9 9 8 8 8 8 8 8 8 8 8 8 9 10 10 11 11 11 11 12 12
11 11 11 10 11 11 11 11 11 11 12 12 12 12 13 13 13 13 12 11 10 10 10 10 10 9 9 9 9 9 9 9 9 9 9 10 10 11 11 12 12 13 13 14
12 12 12 11 11 11 12 12 12 12 12 12 13 13 14 14 14 14 13 12 11 11 10 10 10 10 10 10 10 10 10 10 10 10 11 11 12 12 12 12 12 13 14 14
13 12 12 12 12 12 12 13 12 12 12 13 13 13 14 14 15 14 14 13 12 12 12 11 11 11 11 10 10 10 11 11 11 11 12 13 13 13 13 13 13 14 14 14
13 13 13 13 13 13 13 13 13 12 13 13 13 13 13 14 14 14 14 14 13 13 13 12 12 12 12 12 11 11 12 12 12 13 13 14 14 14 14 14 14 14 14 14
14 14 13 13 13 13 13 14 14 14 14 15 14 14 13 14 14 14 15 15 14 14 14 14 13 13 13 12 12 12 12 13 13 13 14 15 15 14 14 14 14 14 15 14
15 15 14 14 14 14 14 14 14 14 15 15 14 15 13 13 14 14 15 15 15 15 15 15 14 14 14 14 14 14 14 14 14 15 15 15 15 14 14 14 13 14 14 14
16 16 15 14 14 14 14 14 14 15 15 15 15 15 13 13 13 14 14 15 16 16 16 16 15 15 15 15 15 15 15 15 15 15 15 15 15 15 14 13 13 13 14 14
16 16 15 15 14 14 14 15 15 15 16 16 16 14 13 14 13 14 15 15 15 16 16 17 16 16 17 16 16 16 16 16 16 16 16 16 15 15 14 13 13 14 14 14
16 16 15 15 15 14 15 15 16 16 16 16 16 15 13 14 14 14 15 15 15 16 16 16 16 17 17 17 17 18 18 17 16 17 17 16 16 16 15 15 15 15 15 15
18 17 17 17 16 16 15 16 17 17 17 17 16 16 14 14 15 15 15 16 16 16 16 17 17 18 18 18 18 18 18 18 17 17 16 16 17 16 16 16 16 16 16 15
18 18 18 18 18 18 17 17 17 18 18 18 19 18 15 15 15 15 16 16 17 17 17 18 18 19 19 19 19 19 19 19 18 18 17 16 16 16 16 17 16 17 16 16
18 18 18 18 19 19 19 18 18 19 19 19 19 18 17 17 16 16 17 17 17 18 19 19 20 20 20 20 19 19 19 19 19 19 18 18 17 17 17 17 17 17 17 17
20 19 19 19 19 20 20 20 20 20 20 20 19 19 19 19 18 18 18 18 18 19 19 19 20 20 21 21 20 20 20 20 20 19 20 19 19 19 18 18 18 18 18 17
21 22 21 20 20 21 21 21 21 22 22 21 20 20 19 19 20 20 20 20 20 19 19 20 21 21 22 22 22 21 21 21 20 21 20 20 19 19 19 20 20 19 19 18
22 23 22 22 21 22 22 22 22 22 22 22 22 20 20 20 21 21 21 21 21 21 20 21 22 23 24 24 23 23 22 22 22 22 22 21 20 21 21 21 21 20 20 19
23 23 24 24 23 24 23 23 24 24 24 23 22 21 21 21 21 22 21 20 21 22 22 22 22 24 25 25 24 24 24 24 23 23 23 22 22 22 22 22 22 21 21 21
22 23 24 25 25 26 24 24 24 25 25 24 24 23 23 22 22 22 22 22 22 21 22 22 23 23 24 25 26 25 25 24 24 24 23 23 23 22 22 22 22 22 22 22
23 23 24 25 26 26 25 24 24 24 24 24 25 25 24 24 24 23 23 23 23 23 23 23 24 24 24 25 26 26 26 25 25 24 24 24 24 23 23 22 22 22 23 23
25 25 25 26 27 27 25 25 25 25 25 24 25 25 25 25 25 25 25 25 25 25 25 25 25 25 25 26 27 27 27 27 26 26 26 25 25 25 24 24 24 24 24 24
26 26 27 27 28 28 26 26 26 26 25 25 25 25 25 25 25 25 26 26 26 27 27 27 27 27 27 27 28 28 28 28 27 27 27 26 26 26 25 25 25 25 25 25
27 28 28 29 29 28 27 27 27 26 26 26 25 26 26 26 26 26 27 27 27 28 28 29 29 28 28 28 29 29 28 28 28 28 28 27 26 26 26 26 26 26 26 26
28 29 29 30 30 28 27 28 27 27 27 27 27 27 27 27 27 27 27 27 27 28 28 28 29 28 28 28 28 28 28 29 29 29 28 28 27 27 27 26 27 27 26 27
29 29 29 30 30 30 29 29 29 29 28 29 28 28 28 28 28 27 27 27 27 27 28 28 29 29 29 29 28 28 28 30 30 30 30 29 29 28 27 27 27 27 27 27
29 29 30 30 30 31 30 30 30 30 29 29 30 29 29 29 29 28 28 28 28 28 28 28 29 29 30 30 30 29 29 30 31 32 32 31 30 30 29 29 29 29 28 28
29 30 30 30 30 32 32 31 31 31 30 30 30 30 30 30 30 29 29 29 29 28 29 29 29 30 30 31 30 30 30 31 31 31 33 32 32 31 31 31 31 30 31 30
Wind_Direction
269 267 268 264 261 260 258 256 255 256 256 254 251 251 250 251 252 249 250 252 253 251 254 250 248 244 240 239 241 246 255 263 268 272 275 276 275 275 274 276 277 278 280 283
266 266 268 265 260 261 259 257 258 258 255 254 251 249 249 249 251 250 249 251 247 247 251 250 248 245 241 241 244 250 257 265 270 274 277 279 280 278 277 276 278 280 282 284
267 267 265 264 259 260 260 257 257 258 258 256 255 252 250 249 251 250 250 251 249 247 250 251 249 247 244 243 247 253 261 266 271 275 278 281 282 282 281 279 279 282 284 284
265 265 263 261 260 260 260 256 257 257 256 256 255 255 252 251 251 249 249 249 249 247 249 249 249 250 248 248 248 255 263 270 274 277 280 284 285 282 282 282 281 282 284 284
263 262 261 259 260 260 259 257 257 257 257 255 257 258 255 252 250 247 247 248 248 248 251 251 252 253 252 250 252 259 266 273 276 279 281 285 285 284 282 282 281 282 284 285
260 260 259 260 260 260 258 259 258 258 258 257 258 259 257 254 252 248 247 247 248 247 250 251 252 254 253 252 257 264 268 273 278 280 283 285 285 284 283 282 282 284 284 283
258 258 258 259 257 256 256 257 259 259 257 258 258 255 256 255 253 252 250 249 249 248 248 249 250 254 254 254 259 265 269 274 277 279 283 285 283 282 285 286 284 286 285 283
259 259 259 258 255 255 252 252 253 255 256 259 257 256 255 254 257 255 253 251 250 248 248 248 250 252 253 257 261 266 270 274 275 278 281 282 280 281 283 285 285 286 286 284
259 260 258 257 255 254 251 251 252 254 257 259 259 257 255 256 257 256 256 254 251 249 249 251 252 253 253 256 261 265 269 272 273 276 280 280 279 280 280 282 285 286 285 284
258 258 255 255 254 254 252 252 253 254 257 260 261 260 258 256 257 257 256 255 253 251 250 252 253 256 256 257 260 264 268 269 270 273 277 277 278 279 279 281 284 286 285 284
256 257 255 254 254 252 252 253 253 254 256 258 260 260 259 257 258 257 256 254 254 252 253 255 256 256 258 260 262 264 268 269 270 271 274 276 278 278 278 280 283 284 285 285
254 255 256 255 254 252 252 251 252 254 257 258 260 262 258 257 257 257 256 255 253 251 251 252 256 256 257 260 263 265 267 270 271 272 273 274 278 278 279 280 282 285 285 284
255 256 256 255 254 253 252 250 252 254 257 259 260 263 259 257 257 257 257 257 256 253 251 252 255 258 259 260 262 263 267 270 272 273 274 274 275 276 276 278 280 283 283 283
254 255 256 256 256 255 254 253 253 256 258 261 262 263 260 258 258 259 260 259 258 255 254 253 255 256 258 259 260 262 265 270 273 274 275 276 275 275 276 277 279 280 281 283
256 256 257 257 255 254 254 254 254 257 259 260 262 262 262 260 260 260 260 260 259 256 256 254 254 253 254 256 259 261 263 268 270 272 274 275 275 275 277 277 277 278 280 281
257 256 257 257 256 256 254 254 255 257 258 258 259 261 262 261 260 260 259 258 259 257 256 255 254 253 253 255 257 259 263 266 269 271 273 273 273 275 276 278 278 278 279 280
256 256 257 258 259 258 256 256 256 257 257 258 259 260 260 260 259 260 260 259 258 257 258 257 255 254 253 255 257 259 262 265 269 270 271 273 274 275 276 277 277 277 278 279
260 257 256 258 259 259 260 259 259 260 261 260 259 258 259 258 260 261 261 261 261 261 260 259 259 257 257 256 257 259 261 264 267 268 269 271 272 275 277 277 276 277 278 278
260 260 260 259 259 262 261 260 260 262 261 260 260 260 260 259 260 260 261 262 262 261 262 262 261 259 258 258 259 261 262 264 265 266 266 268 271 274 276 276 275 276 277 278
260 261 261 261 260 261 262 261 262 263 261 260 260 261 262 263 263 262 263 264 265 263 262 263 263 261 261 261 262 263 263 264 265 265 265 268 270 272 273 274 274 274 275 276
260 260 260 260 261 262 261 261 262 263 264 264 262 262 262 263 265 265 264 265 266 266 264 263 263 262 262 263 264 264 266 265 265 266 267 268 270 271 272 274 275 275 275 276
262 261 260 259 260 262 262 262 262 263 265 264 263 263 263 264 265 266 265 266 266 266 265 263 262 262 262 263 264 264 265 265 265 265 267 268 269 270 271 273 275 276 276 277
262 262 261 261 262 263 264 263 262 263 263 264 265 265 265 265 266 267 269 269 268 267 265 263 262 262 261 262 263 264 263 264 264 264 266 267 269 270 272 273 274 275 277 278
261 260 261 262 262 262 263 263 262 263 264 264 264 264 264 265 267 268 270 270 270 269 267 265 262 262 262 261 262 262 263 264 264 264 264 267 269 270 271 272 273 274 276 278
261 261 262 263 263 262 262 262 263 263 264 265 264 264 265 265 266 267 268 269 270 268 268 267 263 263 263 263 263 262 262 263 264 263 264 266 268 267 267 269 271 273 276 277
260 261 263 264 262 262 261 261 261 262 263 264 265 265 265 265 266 266 267 268 269 269 269 268 267 263 261 262 263 263 263 264 264 264 265 266 267 267 267 269 270 272 274 276
Height
5843 5844 5843 5843 5843 5843 5843 5844 5844 5844 5844 5845 5845 5846 5847 5847 5847 5848 5848 5849 5849 5850 5850 5850 5850 5850 5851 5851 5851 5851 5852 5852 5851 5851 5851 5850 5850 5849 5849 5848 5847 5846 5846 5845
5840 5840 5840 5840 5840 5840 5840 5840 5841 5841 5841 5841 5842 5843 5843 5843 5844 5845 5846 5846 5847 5847 5847 5848 5848 5848 5848 5849 5849 5849 5849 5849 5849 5849 5848 5848 5847 5846 5845 5845 5844 5843 5842 5841
5836 5837 5836 5836 5836 5836 5836 5837 5837 5838 5838 5838 5839 5840 5840 5840 5841 5841 5842 5843 5844 5845 5845 5845 5845 5846 5846 5847 5847 5847 5847 5847 5846 5846 5845 5845 5844 5843 5842 5841 5840 5839 5838 5837
5832 5833 5832 5832 5832 5832 5832 5833 5833 5834 5834 5835 5836 5836 5837 5837 5837 5838 5839 5840 5841 5842 5842 5842 5843 5843 5844 5844 5844 5844 5844 5844 5844 5843 5842 5841 5840 5840 5839 5838 5837 5836 5834 5833
5828 5828 5828 5828 5829 5829 5829 5829 5829 5830 5831 5831 5832 5832 5834 5833 5834 5835 5836 5837 5837 5838 5839 5839 5840 5840 5841 5841 5841 5842 5841 5841 5841 5840 5839 5838 5837 5836 5835 5834 5833 5832 5831 5829
5824 5824 5824 5824 5824 5825 5825 5826 5826 5826 5827 5828 5828 5829 5830 5829 5830 5831 5832 5833 5834 5835 5836 5836 5837 5837 5838 5838 5838 5838 5838 5838 5837 5837 5836 5835 5833 5832 5831 5830 5829 5828 5827 5825
5819 5819 5819 5820 5820 5821 5821 5823 5823 5823 5823 5824 5824 5824 5826 5826 5826 5827 5828 5828 5829 5831 5832 5833 5833 5834 5834 5835 5835 5835 5835 5835 5834 5833 5832 5831 5830 5829 5828 5826 5825 5824 5823 5821
5815 5815 5815 5816 5816 5817 5817 5818 5820 5820 5821 5821 5820 5820 5823 5822 5822 5822 5823 5824 5825 5826 5827 5828 5829 5830 5831 5831 5831 5831 5831 5831 5830 5829 5828 5827 5826 5825 5824 5823 5821 5820 5819 5817
5810 5811 5811 5811 5811 5812 5813 5813 5815 5816 5815 5816 5816 5817 5818 5818 5818 5818 5819 5820 5821 5822 5823 5824 5825 5825 5826 5827 5827 5827 5827 5826 5826 5825 5824 5823 5822 5821 5820 5819 5818 5816 5815 5814
5805 5806 5806 5806 5807 5808 5809 5809 5810 5811 5811 5811 5812 5813 5815 5814 5814 5814 5815 5815 5816 5817 5818 5819 5820 5821 5821 5822 5822 5823 5822 5822 5821 5820 5819 5819 5818 5817 5816 5815 5814 5813 5811 5810
5800 5801 5802 5802 5802 5803 5804 5805 5805 5806 5807 5807 5808 5811 5810 5810 5810 5810 5810 5811 5812 5813 5814 5815 5815 5816 5817 5817 5817 5817 5817 5817 5816 5815 5815 5814 5813 5812 5812 5811 5809 5808 5807 5805
5794 5795 5796 5797 5798 5798 5799 5800 5801 5802 5802 5802 5803 5807 5805 5805 5805 5805 5805 5806 5807 5808 5809 5809 5810 5811 5812 5812 5812 5812 5812 5812 5811 5810 5810 5809 5808 5808 5807 5806 5805 5803 5802 5801
5789 5790 5791 5791 5794 5794 5793 5794 5795 5796 5796 5797 5798 5801 5800 5800 5800 5800 5801 5801 5802 5802 5803 5804 5805 5806 5806 5807 5807 5807 5807 5807 5806 5805 5804 5804 5803 5802 5801 5801 5800 5798 5797 5796
5783 5784 5786 5787 5787 5787 5788 5789 5790 5790 5791 5791 5793 5794 5794 5794 5795 5796 5796 5796 5796 5797 5798 5798 5799 5800 5801 5801 5802 5802 5802 5801 5800 5800 5799 5798 5797 5797 5796 5795 5794 5793 5792 5791
5777 5778 5779 5780 5780 5781 5782 5783 5784 5784 5785 5786 5787 5787 5789 5789 5789 5790 5790 5790 5791 5791 5792 5793 5793 5794 5795 5795 5796 5796 5796 5795 5795 5794 5793 5792 5792 5791 5790 5789 5788 5788 5787 5786
5771 5772 5773 5773 5774 5774 5775 5777 5777 5778 5778 5779 5780 5782 5782 5782 5783 5783 5784 5785 5785 5786 5786 5786 5787 5788 5788 5789 5790 5790 5790 5789 5789 5788 5787 5787 5786 5786 5785 5784 5783 5782 5781 5780
5764 5765 5766 5767 5768 5767 5769 5771 5771 5771 5772 5773 5773 5776 5775 5775 5776 5776 5777 5778 5778 5779 5779 5780 5780 5781 5782 5782 5783 5783 5783 5783 5782 5782 5781 5781 5780 5779 5778 5777 5776 5776 5775 5774
5757 5758 5759 5760 5761 5761 5765 5764 5764 5764 5765 5766 5766 5767 5768 5768 5769 5769 5770 5771 5772 5772 5773 5773 5773 5774 5774 5775 5775 5775 5776 5776 5775 5775 5775 5774 5773 5772 5771 5770 5770 5769 5768 5768
5751 5751 5752 5753 5753 5754 5757 5757 5757 5757 5758 5758 5759 5760 5760 5761 5761 5762 5763 5763 5764 5765 5765 5766 5766 5767 5767 5767 5768 5768 5768 5768 5768 5768 5768 5767 5766 5766 5765 5764 5763 5762 5762 5761
5743 5744 5745 5745 5745 5746 5750 5749 5749 5750 5750 5752 5751 5752 5753 5753 5754 5756 5755 5755 5756 5756 5757 5758 5758 5759 5759 5760 5760 5760 5760 5760 5760 5760 5760 5760 5759 5758 5757 5757 5756 5756 5755 5754
5735 5736 5736 5737 5736 5738 5741 5741 5742 5743 5744 5744 5744 5744 5745 5745 5747 5747 5747 5747 5748 5748 5748 5749 5750 5750 5751 5751 5751 5751 5751 5752 5752 5752 5752 5752 5751 5750 5750 5750 5749 5748 5748 5747
5727 5727 5728 5728 5729 5732 5732 5732 5734 5735 5735 5735 5735 5736 5737 5737 5738 5738 5738 5738 5738 5739 5739 5740 5740 5741 5742 5742 5742 5743 5743 5743 5743 5743 5743 5743 5743 5743 5742 5742 5741 5741 5740 5739
5718 5720 5719 5721 5723 5723 5723 5723 5724 5725 5725 5726 5726 5727 5728 5728 5729 5729 5729 5729 5729 5730 5730 5730 5731 5732 5733 5733 5733 5734 5734 5734 5734 5735 5735 5735 5735 5735 5734 5734 5733 5733 5732 5731
5709 5710 5710 5711 5713 5713 5714 5714 5715 5715 5716 5717 5718 5718 5719 5719 5720 5720 5720 5720 5720 5720 5721 5721 5721 5722 5723 5724 5724 5725 5725 5725 5725 5726 5726 5726 5726 5726 5726 5726 5725 5725 5724 5723
5700 5700 5701 5701 5703 5704 5704 5705 5705 5706 5706 5707 5708 5709 5710 5710 5711 5711 5711 5711 5711 5711 5712 5712 5712 5713 5713 5714 5715 5715 5716 5716 5716 5717 5717 5717 5718 5718 5718 5717 5717 5716 5716 5714
5690 5691 5691 5692 5694 5694 5695 5695 5696 5696 5697 5698 5699 5700 5700 5700 5701 5701 5702 5702 5702 5702 5702 5702 5703 5703 5704 5704 5705 5706 5706 5706 5707 5708 5708 5708 5708 5708 5708 5708 5708 5707 5706 5705